Weather History for Rochester, MN

Change the Weather History Date:

Saturday, November 5, 2011

  Actual Average Record
Temperature  
Mean Temperature 47 °F 40 °F  
Max Temperature 55 °F 48 °F 70 °F (1893)
Min Temperature 38 °F 32 °F -4 °F (1951)
Degree Days  
Heating Degree Days 18 25  
Month to date heating degree days 106 121  
Since 1 July heating degree days 709 857  
Cooling Degree Days 0 0  
Month to date cooling degree days 0 0  
Year to date cooling degree days 706 585  
Moisture  
Dew Point 38 °F    
Average Humidity 76    
Maximum Humidity 89    
Minimum Humidity 63    
Precipitation  
Precipitation 0.00 in 0.06 in 1.18 in (1979)
Month to date precipitation 0.03 0.33  
Year to date precipitation 26.20 30.21  
Snow  
Snow 0.00 in 0.10 in 3.50 in (1911)
Month to date snowfall 0.0 0.5  
Since 1 July snowfall T 1.3  
Since 1 September snowfall T 1.3  
Snow Depth 0.00 in    
Sea Level Pressure  
Sea Level Pressure 29.95 in    
Wind  
Wind Speed 21 mph (SSE)    
Max Wind Speed 28 mph    
Max Gust Speed 38 mph    
Visibility 7 miles    
Events      
T = Trace of Precipitation, MM = Missing Value Source: NWS Daily Summary

Daily Weather History Graph

Daily Weather History Graph

Search for Another Location

Airport:

Trip Planner

Search our weather history database for the weather conditions in past years. The results will help you decide how hot, cold, wet, or windy it might be!

Date:

Astronomy

Nov. 05, 2011 Rise Set
Actual Time 7:51 AM CDT 5:55 PM CDT
Civil Twilight 7:20 AM CDT 6:25 PM CDT
Nautical Twilight 6:46 AM CDT 6:59 PM CDT
Astronomical Twilight 6:12 AM CDT 7:33 PM CDT
Moon 3:21 PM CDT (11/5) 2:52 AM CDT (11/5)
Length of Visible Light 11h 04m
Length of Day
10h 04m
Waxing Gibbous, 78% of the Moon is Illuminated
Nov 5
Waxing Gibbous
Nov 10
Full
Nov 18
Last Quarter
Nov 25
New
Dec 2
First Quarter

Hourly Weather History & Observations

Time (CDT) Temp. Windchill Dew Point Humidity Pressure Visibility Wind Dir Wind Speed Gust Speed Precip Events Conditions
12:54 AM 39.9 °F 30.8 °F 32.0 °F 73% 30.12 in 10.0 mi SSE 18.4 mph 27.6 mph N/A   Clear
1:54 AM 39.9 °F 30.8 °F 32.0 °F 73% 30.12 in 10.0 mi SSE 18.4 mph 25.3 mph N/A   Clear
2:54 AM 39.0 °F 30.3 °F 32.0 °F 76% 30.12 in 10.0 mi SSE 16.1 mph - N/A   Clear
3:54 AM 37.9 °F 28.5 °F 32.0 °F 79% 30.10 in 10.0 mi SSE 17.3 mph 25.3 mph N/A   Clear
4:54 AM 37.9 °F 28.5 °F 32.0 °F 79% 30.08 in 10.0 mi SSE 17.3 mph - N/A   Clear
5:54 AM 37.9 °F 28.5 °F 32.0 °F 79% 30.07 in 10.0 mi SSE 17.3 mph - N/A   Clear
6:54 AM 37.9 °F 28.2 °F 32.0 °F 79% 30.06 in 10.0 mi SSE 18.4 mph 24.2 mph N/A   Clear
7:54 AM 37.9 °F 28.9 °F 32.0 °F 79% 30.06 in 10.0 mi SSE 16.1 mph - N/A   Clear
8:54 AM 39.0 °F 29.6 °F 34.0 °F 82% 30.05 in 8.0 mi South 18.4 mph 24.2 mph N/A   Clear
9:54 AM 43.0 °F 34.0 °F 37.0 °F 80% 30.02 in 7.0 mi South 21.9 mph 28.8 mph N/A   Mostly Cloudy
10:54 AM 46.0 °F 38.5 °F 39.0 °F 76% 30.01 in 5.0 mi South 19.6 mph 29.9 mph N/A   Haze
11:45 AM 48.2 °F - 39.2 °F 71% 29.97 in 6.0 mi South 18.4 mph 29.9 mph N/A   Haze
11:54 AM 48.9 °F - 41.0 °F 74% 29.99 in 6.0 mi SSE 23.0 mph 31.1 mph N/A   Haze
12:54 PM 51.1 °F - 41.0 °F 68% 29.96 in 7.0 mi South 21.9 mph 28.8 mph N/A   Clear
1:54 PM 52.0 °F - 39.9 °F 63% 29.94 in 7.0 mi SSE 19.6 mph 26.5 mph N/A   Clear
2:54 PM 54.0 °F - 41.0 °F 62% 29.91 in 8.0 mi SSE 23.0 mph 29.9 mph N/A   Clear
3:54 PM 53.1 °F - 41.0 °F 64% 29.90 in 8.0 mi SSE 18.4 mph 26.5 mph N/A   Clear
4:54 PM 52.0 °F - 41.0 °F 66% 29.89 in 8.0 mi SSE 20.7 mph 26.5 mph N/A   Clear
5:54 PM 46.0 °F 38.0 °F 39.9 °F 79% 29.88 in 5.0 mi SSE 21.9 mph 33.4 mph N/A   Haze
6:32 PM 44.6 °F 35.9 °F 39.2 °F 81% 29.84 in 6.0 mi SSE 23.0 mph 31.1 mph N/A   Haze
6:41 PM 44.6 °F 37.2 °F 41.0 °F 87% 29.85 in 5.0 mi SSE 17.3 mph 33.4 mph N/A   Mostly Cloudy
6:54 PM 45.0 °F 36.9 °F 41.0 °F 86% 29.88 in 5.0 mi SSE 20.7 mph 29.9 mph N/A   Overcast
7:54 PM 45.0 °F 35.6 °F 39.9 °F 82% 29.86 in 6.0 mi SSE 27.6 mph 35.7 mph N/A   Haze
8:54 PM 45.0 °F 36.6 °F 41.0 °F 86% 29.84 in 5.0 mi South 21.9 mph 33.4 mph N/A   Mostly Cloudy
9:13 PM 44.6 °F 35.9 °F 41.0 °F 87% 29.81 in 5.0 mi South 23.0 mph 32.2 mph N/A   Scattered Clouds
9:54 PM 46.0 °F 37.6 °F 42.1 °F 86% 29.82 in 6.0 mi SSE 24.2 mph 31.1 mph N/A   Clear
10:54 PM 46.9 °F - 43.0 °F 86% 29.81 in 6.0 mi South 26.5 mph 34.5 mph N/A   Clear
11:54 PM 48.0 °F - 43.0 °F 83% 29.77 in 6.0 mi SSE 25.3 mph 38.0 mph N/A   Haze